Station 46005 (LLNR 765.5) - WEST WASHINGTON - 300NM West of Aberdeen, WA Image indicating link to RSS feed of recent meteorological observations for station 46005


Conditions at 46005 as of
(1:50 am AKDT)
0950 GMT on 07/13/2024:
     

Click on the graph icon in the table below to see a time series plot of the last five days of that observation.

5-day plot - Wind Direction Wind Direction (WDIR):NNW ( 340 deg true )
5-day plot - Wind Speed Wind Speed (WSPD): 17.5 kts
5-day plot - Wind Gust Wind Gust (GST): 21.4 kts
5-day plot - Wave Height Wave Height (WVHT): 5.6 ft
5-day plot - Dominant Wave Period Dominant Wave Period (DPD): 6 sec
5-day plot - Average Wave Period Average Period (APD): 5.1 sec
5-day plot - Mean Wave Direction Mean Wave Direction (MWD):NNW ( 330 deg true )
5-day plot - Atmospheric Pressure Atmospheric Pressure (PRES):30.27 in
5-day plot - Air Temperature Air Temperature (ATMP): 57.9 °F
5-day plot - Water Temperature Water Temperature (WTMP): 59.9 °F
5-day plot - Dew Point Dew Point (DEWP): 57.2 °F
5-day plot - Wind Speed at 10 Meters Wind Speed at 10 meters (WSPD10M): 19.4 kts
5-day plot - Wind Speed at 20 Meters Wind Speed at 20 meters (WSPD20M): 19.4 kts
5-day plot -  Wind Speed, Wind Gust and Atmospheric Pressure Combined plot of Wind Speed, Gust, and Air Pressure
Supplemental Measurements
Highest 1-minute Wind Speed
Time (AKDT)5-day plot - 1-Minute Wind Speed WSPD 5-day plot - 1-Minute Wind Direction WDIR
1:43 am 19.4 kts-
Previous observations
TIME
(AKDT)
5-day plot - Wind Direction
WDIR
 
5-day plot - Wind Speed
WSPD
kts
5-day plot - Wind Gust
GST
kts
5-day plot - Wave Height
WVHT
ft
5-day plot - Dominant Wave Period
DPD
sec
5-day plot - Average Wave Period
APD
sec
5-day plot - Mean Wave Direction
MWD
 
5-day plot - Atmospheric Pressure
PRES
in
5-day plot - Pressure Tendency
PTDY
in
5-day plot - Air Temperature
ATMP
°F
5-day plot - Water Temperature
WTMP
°F
5-day plot - Dew Point
DEWP
°F
5-day plot - Salinity
SAL
psu
5-day plot - Visibility
VIS
nmi
5-day plot - Tide (above MLLW)
TIDE
ft
2024-07-13 01:40 amNNW 17.5 23.3----30.27- 57.7 59.9 57.0---
2024-07-13 01:30 amNNW 17.5 21.4----30.27- 57.9 59.9 57.0---
2024-07-13 01:20 am N 17.5 21.4 5.6 65.2NNW30.27- 57.9 59.9 57.0---
2024-07-13 01:10 amNNW 15.5 19.4 5.6-5.2NNW30.27- 58.1 59.9 57.4---
2024-07-13 01:00 amNNW 17.5 21.4----30.27-0.01 57.9 59.9 57.2---
2024-07-13 12:50 amNNW 15.5 19.4 5.2 64.9 N30.27- 58.3 59.9 57.4---
2024-07-13 12:40 amNNW 15.5 19.4 5.2-4.9 N30.27- 58.5 59.9 57.6---
2024-07-13 12:30 amNNW 15.5 19.4----30.27- 58.6 60.1 57.7---
2024-07-13 12:20 amNNW 15.5 19.4 5.2 65.1NNW30.27- 58.6 59.9 57.6---
2024-07-13 12:10 amNNW 17.5 21.4 5.2-5.1NNW30.27- 58.8 59.9 57.6---
2024-07-13 12:00 amNNW 17.5 19.4----30.27-0.01 58.8 59.9 57.4---
2024-07-12 11:50 pmNNW 15.5 21.4 5.2 75.1 N30.27- 58.8 59.9 57.4---
2024-07-12 11:40 pmNNW 15.5 19.4 5.2-5.1 N30.28- 58.8 59.9 57.4---
2024-07-12 11:30 pm N 17.5 21.4----30.28- 58.6 59.9 57.0---
2024-07-12 11:20 pmNNW 17.5 21.4 5.6 65.2 N30.27- 58.5 60.1 57.2---
2024-07-12 11:10 pmNNW 15.5 19.4 5.6-5.2 N30.28- 58.5 60.1 57.6---
2024-07-12 11:00 pmNNW 15.5 19.4----30.28+0.00 58.5 60.1 57.4---
2024-07-12 10:50 pmNNW 17.5 19.4 5.2 65.0NNW30.28- 58.5- 57.4---
2024-07-12 10:40 pmNNW 17.5 21.4 5.2-5.0NNW30.28- 58.5 60.1 57.4---
2024-07-12 10:30 pmNNW 17.5 21.4----30.28- 58.8 60.1 57.6---
2024-07-12 10:20 pmNNW 17.5 21.4 5.2 65.0 N30.28- 58.6 60.1 57.4---
2024-07-12 10:10 pmNNW 17.5 21.4 5.2-5.0 N30.28- 58.8 60.1 57.6---
2024-07-12 10:00 pmNNW 17.5 21.4----30.29+0.00 58.8 60.1 57.4---
2024-07-12 09:50 pmNNW 17.5 21.4 5.2 75.0NNW30.29- 59.0 60.1 57.4---
2024-07-12 09:40 pmNNW 17.5 23.3----30.29- 59.0 60.1 57.0---
2024-07-12 09:30 pmNNW 17.5 23.3----30.29- 58.8 60.1 57.2---
2024-07-12 09:20 pmNNW 15.5 19.4 5.2 74.9NNW30.29- 59.0 60.1 57.4---
2024-07-12 09:10 pmNNW 17.5 21.4 5.2-4.9NNW30.29- 59.0 60.1 57.4---
2024-07-12 09:00 pmNNW 17.5 23.3----30.28+0.00 59.2 60.1 57.2---
2024-07-12 08:50 pmNNW 17.5 21.4 5.2 74.9NNW30.28- 59.2 60.1 57.0---
2024-07-12 08:40 pmNNW 17.5 23.3 5.2-4.9NNW30.28- 59.2 60.1 57.2---
2024-07-12 08:30 pmNNW 17.5 25.3----30.28- 59.2 60.1 57.4---
2024-07-12 08:20 pmNNW 17.5 21.4 5.2 74.9 NW30.28- 59.2 60.1 57.0---
2024-07-12 08:10 pmNNW 19.4 23.3 5.2-4.9 NW30.28- 59.2 60.1 57.2---
2024-07-12 08:00 pmNNW 17.5 19.4----30.28-0.01 59.2 60.1 57.2---
2024-07-12 07:50 pmNNW 17.5 25.3 4.6 74.8NNW30.28- 59.0 60.1 57.2---
2024-07-12 07:40 pmNNW 17.5 21.4----30.28- 59.0 60.1 58.1---
2024-07-12 07:30 pmNNW 15.5 19.4----30.29- 59.2 60.1 57.7---
2024-07-12 07:20 pmNNW 15.5 19.4 5.2 64.8 N30.29- 59.2 60.1 57.6---
2024-07-12 07:10 pmNNW 15.5 21.4 5.2-4.8 N30.29- 59.2 60.1 58.3---
2024-07-12 07:00 pmNNW 15.5 19.4----30.29-0.02 59.2 60.1 58.5---
2024-07-12 06:50 pmNNW 15.5 19.4 4.9 64.8 N30.29- 59.2 60.1 58.5---
2024-07-12 06:40 pmNNW 15.5 19.4----30.28- 59.4 60.1 58.3---
2024-07-12 06:30 pmNNW 15.5 19.4----30.28- 59.4 60.1 58.1---
2024-07-12 06:20 pmNNW 17.5 21.4 4.9 64.8 N30.28- 59.4 60.1 58.3---
2024-07-12 06:10 pmNNW 17.5 21.4 4.9-4.8 N30.28- 59.4 60.1 58.3---
2024-07-12 06:00 pmNNW 15.5 19.4----30.28-0.04 59.5 60.3 58.3---
2024-07-12 05:50 pmNNW 15.5 19.4 4.9 74.9 N30.28- 59.4 60.3 57.9---
2024-07-12 05:40 pmNNW 15.5 19.4----30.29- 59.4 60.3 57.9---
2024-07-12 05:30 pmNNW 17.5 21.4----30.29- 59.4 60.3 57.9---
2024-07-12 05:20 pm NW 17.5 21.4 4.9 64.8 N30.29- 59.5 60.3 58.1---
2024-07-12 05:10 pmNNW 15.5 19.4 4.9-4.8 N30.29- 59.5 60.3 57.9---
2024-07-12 05:00 pmNNW 15.5 19.4----30.29-0.04 59.5 60.3 57.7---
2024-07-12 04:50 pmNNW 15.5 21.4 4.6 64.8 N30.29- 59.5 60.3 57.7---
2024-07-12 04:40 pmNNW 17.5 19.4 4.6-4.8 N30.29- 59.7 60.3 57.7---
2024-07-12 04:30 pmNNW 15.5 19.4----30.29- 59.7 60.3 57.4---
2024-07-12 04:20 pm NW 15.5 19.4 4.6 54.8NNW30.30- 59.7 60.3 57.0---
2024-07-12 04:10 pmNNW 15.5 17.5 4.6-4.8NNW30.30- 59.7 60.3 57.0---
2024-07-12 04:00 pmNNW 15.5 19.4----30.30-0.04 59.7 60.3 56.8---
2024-07-12 03:50 pmNNW 15.5 17.5 4.9 64.9 N30.31- 59.9 60.3 57.0---
2024-07-12 03:40 pmNNW 15.5 19.4----30.31- 59.9 60.3 56.7---
2024-07-12 03:30 pmNNW 15.5 19.4----30.31- 59.7 60.3 56.5---
2024-07-12 03:10 pmNNW 13.6 17.5 4.9-4.9 N30.32- 59.7 60.3 56.5---
2024-07-12 03:00 pmNNW 15.5 19.4----30.32-0.03 59.7 60.3 56.5---
2024-07-12 02:50 pmNNW 15.5 19.4 4.9 65.0NNW30.32- 59.5 60.3 55.8---
2024-07-12 02:40 pmNNW 17.5 21.4 4.9-5.0NNW30.32- 59.5 60.3 56.3---
2024-07-12 02:30 pmNNW 15.5 19.4----30.32- 59.7 60.3 56.3---
2024-07-12 02:20 pmNNW 15.5 19.4 5.2 64.8 N30.33- 59.7 60.1 56.1---
2024-07-12 02:10 pmNNW 15.5 17.5 5.2-4.8 N30.33- 59.5 60.1 55.6---
2024-07-12 02:00 pmNNW 15.5 19.4----30.33-0.01 59.4 60.1 56.1---
2024-07-12 01:50 pmNNW 17.5 19.4 4.9 65.1 N30.33- 59.4 60.1 56.3---
2024-07-12 01:40 pmNNW 15.5 19.4 4.9-5.1 N30.33- 59.4 60.1 56.7---
2024-07-12 01:30 pmNNW 15.5 19.4----30.34- 59.4 60.1 56.8---
2024-07-12 01:20 pmNNW 15.5 21.4 4.9 55.0NNW30.33- 59.4 60.1 56.8---
2024-07-12 01:10 pmNNW 15.5 19.4 4.9-5.0NNW30.33- 59.0 60.1 56.5---
2024-07-12 01:00 pmNNW 15.5 19.4----30.33+0.00 59.0 60.1 56.5---
2024-07-12 12:50 pmNNW 15.5 21.4 5.2 65.0NNW30.34- 58.8 60.1 56.3---
2024-07-12 12:40 pmNNW 15.5 19.4 5.2-5.0NNW30.34- 58.8 60.1 56.5---
2024-07-12 12:30 pmNNW 13.6 17.5----30.34- 58.6 60.1 56.8---
2024-07-12 12:20 pmNNW 15.5 17.5 5.2 54.9NNW30.34- 58.3 60.1 56.7---
2024-07-12 12:10 pmNNW 15.5 19.4 5.2-4.9NNW30.35- 58.6 60.1 56.7---
2024-07-12 12:00 pmNNW 15.5 17.5----30.35+0.01 58.8 60.1 56.8---
2024-07-12 11:50 amNNW 15.5 19.4 4.9 64.9 N30.35- 58.6 60.1 56.3---
2024-07-12 11:40 amNNW 15.5 19.4----30.35- 58.6 60.1 56.3---
2024-07-12 11:30 amNNW 15.5 19.4----30.35- 58.6 60.1 56.5---
2024-07-12 11:20 amNNW 15.5 19.4 4.9 84.9WNW30.35- 58.3 60.1 56.3---
2024-07-12 11:10 amNNW 15.5 19.4 4.9-4.9WNW30.35- 58.1 60.1 56.7---
2024-07-12 11:00 amNNW 15.5 19.4----30.35+0.01 58.1 60.1 56.8---
2024-07-12 10:50 amNNW 15.5 19.4 4.6 85.0WNW30.35- 58.5 60.1 56.8---
2024-07-12 10:40 amNNW 15.5 19.4 4.6-5.0WNW30.35- 58.3 60.1 56.7---
2024-07-12 10:30 amNNW 15.5 21.4----30.34- 57.9 60.1 56.7---
2024-07-12 10:20 amNNW 15.5 19.4 4.6 74.9WNW30.34- 58.5 60.1 56.3---
2024-07-12 10:10 amNNW 15.5 19.4 4.6-4.9WNW30.34- 58.6 60.1 56.1---
2024-07-12 10:00 amNNW 15.5 19.4----30.34+0.01 58.6 60.1 55.9---
2024-07-12 09:50 amNNW 15.5 19.4 5.2 55.2NNW30.34- 58.6 60.1 55.9---
2024-07-12 09:40 amNNW 15.5 19.4 5.2-5.2NNW30.34- 58.6 60.1 56.1---
2024-07-12 09:30 amNNW 15.5 19.4----30.34- 58.5 60.1 55.9---
2024-07-12 09:20 amNNW 15.5 21.4 4.9 54.9NNW30.34- 58.5 60.1 56.1---
2024-07-12 09:10 amNNW 15.5 19.4 4.9-4.9NNW30.34- 58.5 60.1 56.1---
2024-07-12 09:00 amNNW 15.5 19.4----30.34+0.01 58.5 60.1 55.9---
2024-07-12 08:50 amNNW 13.6 19.4 4.6 54.8 N30.34- 58.3 60.1 55.9---
2024-07-12 08:40 amNNW 13.6 17.5 4.6-4.8 N30.34- 58.1 60.1 55.9---
2024-07-12 08:30 amNNW 13.6 17.5----30.34- 58.3 60.1 56.5---
2024-07-12 08:20 amNNW 15.5 19.4 4.6 64.8 N30.33- 58.1 60.1 55.9---
2024-07-12 08:10 amNNW 13.6 17.5----30.33- 58.1 60.1 56.5---
2024-07-12 08:00 amNNW 15.5 21.4----30.35+0.02 57.7 60.1 56.1---
2024-07-12 07:50 amNNW 15.5 19.4 4.6 54.7 N30.33- 57.7 60.1 56.1---
2024-07-12 07:40 amNNW 17.5 21.4 4.6-4.7 N30.33- 57.7 60.1 56.5---
2024-07-12 07:30 amNNW 15.5 19.4----30.33- 58.3 60.1 56.3---
2024-07-12 07:20 amNNW 15.5 19.4 4.9 64.8NNE30.33- 58.1 60.1 56.7---
2024-07-12 07:10 am N 15.5 19.4 4.9-4.8NNE30.33- 58.3 60.1 56.5---
2024-07-12 07:00 amNNW 13.6 17.5----30.33+0.02 58.1 60.1 56.7---
2024-07-12 06:50 amNNW 13.6 17.5 4.6 74.9WNW30.33- 57.9 60.1 56.8---
2024-07-12 06:40 am N 15.5 19.4 4.6-4.9WNW30.33- 57.7 60.1 56.5---
2024-07-12 06:30 am N 17.5 21.4----30.33- 57.9 60.1 55.9---
2024-07-12 06:20 am N 15.5 19.4 4.6 64.7 N30.33- 57.9 60.1 56.1---
2024-07-12 06:10 am N 13.6 19.4 4.6-4.7 N30.33- 57.6 60.1 56.7---
2024-07-12 06:00 am N 17.5 23.3----30.33+0.01 56.7 60.1 56.5---
2024-07-12 05:50 am N 15.5 23.3 4.6 54.8 N30.33- 57.2 60.1 56.8---
2024-07-12 05:40 am N 15.5 19.4 4.6-4.8 N30.32- 57.7 60.1 57.0---
2024-07-12 05:30 amNNW 15.5 19.4----30.32- 58.1 60.1 56.8---
2024-07-12 05:20 amNNW 15.5 17.5 4.6 54.8 N30.32- 57.9 60.1 56.5---
2024-07-12 05:10 amNNW 15.5 17.5 4.6-4.8 N30.32- 57.7 60.1 56.7---
2024-07-12 05:00 amNNW 13.6 17.5----30.32-0.01 57.4 60.1 56.7---
2024-07-12 04:50 amNNW 15.5 19.4 4.6 64.9 N30.32- 57.7 60.3 56.7---
2024-07-12 04:40 amNNW 15.5 19.4 4.6-4.9 N30.32- 58.1 60.3 56.7---
2024-07-12 04:30 am N 15.5 19.4----30.31- 58.1 60.3 56.3---
2024-07-12 04:20 amNNW 13.6 17.5 4.3 54.9NNW30.32- 57.9 60.3 56.1---
2024-07-12 04:10 amNNW 13.6 15.5 4.3-4.9NNW30.32- 57.9 60.3 56.3---
2024-07-12 04:00 amNNW 13.6 17.5----30.32-0.03 57.6 60.3 55.9---
2024-07-12 03:50 amNNW 15.5 19.4 4.6 54.8NNW30.32- 57.4 60.3 56.1---
2024-07-12 03:40 am N 15.5 19.4----30.32- 57.6 60.3 55.8---
2024-07-12 03:30 amNNW 15.5 19.4----30.32- 57.9 60.3 55.6---
2024-07-12 03:20 amNNW 13.6 17.5 4.3 74.9WNW30.32- 58.1 60.3 56.1---
2024-07-12 03:10 amNNW 13.6 15.5 4.3-4.9WNW30.32- 58.1 60.3 56.3---
2024-07-12 03:00 amNNW 13.6 17.5----30.32-0.03 58.3 60.3 55.9---
2024-07-12 02:50 amNNW 15.5 19.4 4.3 54.8 N30.32- 58.3 60.3 55.4---
2024-07-12 02:40 amNNW 15.5 19.4----30.32- 58.1 60.3 55.0---
2024-07-12 02:30 amNNW 15.5 19.4----30.32- 57.9 60.3 55.0---
2024-07-12 02:20 amNNW 15.5 21.4 4.3 84.9 W30.32- 57.9 60.3 55.2---
2024-07-12 02:10 amNNW 15.5 19.4 4.3-4.9 W30.33- 57.9 60.3 55.2---
2024-07-12 02:00 amNNW 15.5 19.4----30.33-0.03 58.1 60.3 55.4---
2024-07-12 01:50 amNNW 15.5 19.4 3.9 54.8NNW30.33- 57.9 60.3 55.0---

Detailed Wave Summary
for 46005 as of (1:40 am AKDT)
0940 GMT on 07/13/2024:

These wave data are displayed in rounded times.

     

Click on the graph icon in the table below to see a time series plot of the last five days of that observation.

5-day plot - Significant Wave Height Significant Wave Height (WVHT): 5.6 ft
5-day plot - Swell Height Swell Height (SwH): 1.0 ft
5-day plot - Swell Period Swell Period (SwP): 16.0 sec
5-day plot - Swell Direction Swell Direction (SwD):WSW
5-day plot - Wind Wave Height Wind Wave Height (WWH): 5.6 ft
5-day plot - Wind Wave Period Wind Wave Period (WWP): 5.9 sec
5-day plot - Wind Wave Direction Wind Wave Direction (WWD):NNW
5-day plot - Wave Steepness Wave Steepness (STEEPNESS):VERY_STEEP
5-day plot - Average Wave Period Average Wave Period (APD): 5.1 sec
Previous observations
TIME
(AKDT)
5-day plot - Wave Height
WVHT
ft
5-day plot - Swell Height
SwH
ft
5-day plot - Swell Period
SwP
sec
5-day plot - Swell Direction
SwD
 
5-day plot - Wind Wave Height
WWH
ft
5-day plot - Wind Wave Period
WWP
sec
5-day plot - Wind Wave Direction
WWD
 
5-day plot - Wave Steepness
STEEPNESS
 
5-day plot - Average Wave Period
APD
sec
2024-07-13 01:10 am 5.6 0.7 14.8NNE 5.6 6.2 NNWVERY_STEEP 5.2
2024-07-13 12:40 am 5.2 1.3 14.8 SE 5.2 5.9 NVERY_STEEP 4.9
2024-07-13 12:10 am 5.2 1.3 16.0 W 5.2 6.2 NNW STEEP 5.1
2024-07-12 11:40 pm 5.2 1.3 16.0SSW 4.9 6.7 N STEEP 5.1
2024-07-12 11:10 pm 5.6 1.6 16.0 W 5.2 6.2 NVERY_STEEP 5.2
2024-07-12 10:40 pm 5.2 1.0 16.0WNW 5.2 5.9 NNWVERY_STEEP 5.0
2024-07-12 10:10 pm 5.2 1.0 16.0WSW 4.9 5.6 NVERY_STEEP 5.0
2024-07-12 09:40 pm 5.2 1.3 16.0SSE 5.2 7.1 NNW STEEP 5.0
2024-07-12 09:10 pm 5.2 1.0 16.0 W 4.9 6.7 NNW STEEP 4.9
2024-07-12 08:40 pm 5.2 1.3 16.0WNW 4.9 6.7 NNW STEEP 4.9
2024-07-12 08:10 pm 5.2 1.3 16.0WNW 5.2 7.1 NW STEEP 4.9
2024-07-12 07:40 pm 4.6 1.3 14.8WNW 4.6 6.7 NNW STEEP 4.8
2024-07-12 07:10 pm 5.2 1.3 16.0SSE 4.9 5.6 NVERY_STEEP 4.8
2024-07-12 06:40 pm 4.9 1.3 16.0 SW 4.6 5.9 NVERY_STEEP 4.8
2024-07-12 06:10 pm 4.9 1.3 16.0 S 4.9 5.6 NVERY_STEEP 4.8
2024-07-12 05:40 pm 4.9 1.3 16.0SSW 4.6 6.7 N STEEP 4.9
2024-07-12 05:10 pm 4.9 1.3 16.0 SE 4.6 5.9 NVERY_STEEP 4.8
2024-07-12 04:40 pm 4.6 1.0 16.0 E 4.6 5.9 NVERY_STEEP 4.8
2024-07-12 04:10 pm 4.6 1.0 16.0WSW 4.6 4.8 NNWVERY_STEEP 4.8
2024-07-12 03:40 pm 4.9 1.6 7.7WNW 4.6 5.9-VERY_STEEP 4.9
2024-07-12 03:10 pm 4.9 2.0 7.7WNW 4.6 5.9 NVERY_STEEP 4.9
2024-07-12 02:40 pm 4.9 1.6 13.8SSE 4.9 5.6 NNWVERY_STEEP 5.0
2024-07-12 02:10 pm 5.2 1.3 17.4 NW 4.9 5.6-VERY_STEEP 4.8
2024-07-12 01:40 pm 4.9 1.3 16.0 N 4.6 5.9 NVERY_STEEP 5.1
2024-07-12 01:10 pm 4.9 1.3 16.0 SW 4.6 5.3 NNWVERY_STEEP 5.0
2024-07-12 12:40 pm 5.2 1.3 16.0WSW 4.9 5.9 NNWVERY_STEEP 5.0
2024-07-12 12:10 pm 5.2 1.3 16.0 SW 4.9 5.0 NNWVERY_STEEP 4.9
2024-07-12 11:40 am 4.9 1.0 10.0WNW 4.6 6.2 N STEEP 4.9
2024-07-12 11:10 am 4.9 2.0 7.7WNW 4.3 6.7 WNW AVERAGE 4.9
2024-07-12 10:40 am 4.6 2.0 7.7WNW 4.3 5.3 NNW AVERAGE 5.0
2024-07-12 10:10 am 4.6 1.3 8.3WNW 4.3 7.1 WNW STEEP 4.9
2024-07-12 09:40 am 5.2 2.0 17.4WSW 4.6 5.3 NNWVERY_STEEP 5.2
2024-07-12 09:10 am 4.9 1.3 16.0ENE 4.6 5.3 NNWVERY_STEEP 4.9
2024-07-12 08:40 am 4.6 1.6 13.8ESE 4.3 5.3 NVERY_STEEP 4.8
2024-07-12 08:10 am 4.6 2.0 7.7WNW 3.9 5.6 NVERY_STEEP 4.8
2024-07-12 07:40 am 4.6 1.6 8.3WNW 4.3 5.3 NVERY_STEEP 4.7
2024-07-12 07:10 am 4.9 1.6 7.7WNW 4.3 5.6 NNEVERY_STEEP 4.8
2024-07-12 06:40 am 4.6 2.0 16.0WSW 3.9 7.1 WNW STEEP 4.9
2024-07-12 06:10 am 4.6 2.0 7.1WNW 3.9 5.9 N STEEP 4.7
2024-07-12 05:40 am 4.6 1.3 16.0 SE 4.3 5.3 NVERY_STEEP 4.8
2024-07-12 05:10 am 4.6 2.0 7.7 W 3.9 5.0 NVERY_STEEP 4.8
2024-07-12 04:40 am 4.6 2.0 7.7WNW 4.3 5.6 NVERY_STEEP 4.9
2024-07-12 04:10 am 4.3 2.0 7.7WNW 3.9 5.0 NNWVERY_STEEP 4.9
2024-07-12 03:40 am 4.6 2.0 7.7WNW 4.3 4.8 NNWVERY_STEEP 4.8
2024-07-12 03:10 am 4.3 2.6 7.1WNW 3.3 5.0 NNW STEEP 4.9
2024-07-12 02:40 am 4.3 1.3 10.8 W 4.3 5.0 NVERY_STEEP 4.8
2024-07-12 02:10 am 4.3 2.0 17.4 W 3.9 7.7 W AVERAGE 4.9

Plot of wave energy versus frequency (and period)